Tracking 19489 objects as of 22-Jan-2019
HD Live streaming from Space Station
objects crossing your sky now

SATCOM C1

Track SATCOM C1 now!
SATCOM C1 is classified as:


NORAD ID: 20945
Int'l Code: 1990-100A
Perigee: 36,033.7 km
Apogee: 36,171.1 km
Inclination: 11.0 °
Period: 1,451.9 minutes
Semi major axis: 42473 km
RCS: 6.3 m2 (large)
Launch date: November 20, 1990
Source: United States (US)
Launch site: FRENCH GUIANA (FRGUI)
aabbcc
Your satellite tracking list
Your tracking list is empty




NASA's NSSDC Master Catalog

Two Line Element Set (TLE):
1 20945U 90100A   19021.51772914 -.00000018 +00000-0 +00000-0 0  9999
2 20945 010.9886 033.3847 0016174 314.5152 044.0496 00.99180847100163
Source of the keplerian elements: AFSPC